Location: Ku?niki
(51.4449°N, 17.8974°E)
Time: 06:04:23
(UTC+00:00)

M-CUBED/EXP-1 PRIME - Visible Passes

Search period start: 26 June 2022 00:00
Search period end: 06 July 2022 00:00
Orbit: 423 x 634 km, 101.7° (Epoch: 25 June)

Date Brightness Start Highest point End Pass type
(mag) Time Alt. Az. Time Alt. Az. Time Alt. Az.
26 Jun ? 23:20:14 22° SE 23:22:06 60° ENE 23:25:23 10° NNW visible
27 Jun ? 00:55:29 10° WSW 00:56:25 11° W 00:57:27 10° WNW visible
27 Jun ? 23:09:01 17° SE 23:11:08 42° ENE 23:14:18 10° N visible
28 Jun ? 00:44:16 14° WSW 00:45:17 15° W 00:47:21 10° WNW visible
28 Jun ? 22:57:47 13° ESE 23:00:11 30° ENE 23:03:10 10° N visible
29 Jun ? 00:33:02 18° SW 00:34:09 21° W 00:36:47 10° NW visible
29 Jun ? 22:46:37 10° ESE 22:49:14 23° ENE 22:51:58 10° N visible
30 Jun ? 00:21:47 22° SW 00:23:03 29° WSW 00:26:02 10° NW visible
30 Jun ? 22:36:01 10° E 22:38:19 18° NE 22:40:40 10° N visible
01 Jul ? 00:10:32 26° SSW 00:11:56 42° WSW 00:15:10 10° NNW visible
01 Jul ? 22:25:36 10° E 22:27:24 14° NE 22:29:15 10° NNE visible
01 Jul ? 23:59:15 27° S 00:00:51 62° WSW 00:04:13 10° NNW visible
02 Jul ? 22:15:30 10° ENE 22:16:30 11° NE 22:17:30 10° NNE visible
02 Jul ? 23:47:58 25° SSE 23:49:45 89° SSW 23:53:13 10° NNW visible
03 Jul ? 23:36:40 21° SE 23:38:42 63° ENE 23:42:08 10° NNW visible
04 Jul ? 01:11:57 10° WSW 01:13:04 11° W 01:14:12 10° WNW visible
04 Jul ? 23:25:21 17° SE 23:27:39 44° ENE 23:31:00 10° N visible
05 Jul ? 01:00:36 13° WSW 01:01:50 16° W 01:04:00 10° WNW visible
05 Jul ? 23:14:02 13° ESE 23:16:36 33° ENE 23:19:48 10° N visible
